Location: Larrial
(48.2758°N, 4.5331°W)
Time: 23:40:04
(UTC+00:00)

AAUSAT CUBESAT 2 - Pass Details

Date: 28 November 2021
Orbit: 571 x 586 km, 97.5° (Epoch: 19 January)

Event Time Altitude Azimuth Distance (km) Brightness Sun altitude
Rises 17:25:39 0° 198° (SSW) 2,773 ? -9.4°
Reaches altitude 10° 17:28:08 10° 212° (SSW) 1,878 ? -9.8°
Maximum altitude 17:31:26 24° 267° (W) 1,223 ? -10.3°
Drops below altitude 10° 17:34:45 10° 321° (NW) 1,888 ? -10.8°
Sets 17:37:15 0° 336° (NNW) 2,791 ? -11.2°
